Regional Weather Roundup
Issued by NWS

Home | Current Version | Previous Version | Text Only | Print | Product List | Glossary Off
Versions: 1 2 3 4 5 6 7 8 9 10 11 12 13 14 15 16 17 18 19 20 21 22 23 24 25 26 27 28 29 30 31 32 33 34 35 36 37 38 39 40 41 42 43 44 45 46 47 48 49 50

000
ASUS43 KDTX 251501
RWRMI
MICHIGAN HOURLY REGIONAL WEATHER ROUNDUP
NATIONAL WEATHER SERVICE DETROIT/PONTIAC MI
1000 AM EST SAT FEB 25 2017

NOTE: "FAIR" INDICATES FEW OR NO CLOUDS BELOW 12,000 FEET WITH NO
SIGNIFICANT WEATHER AND/OR OBSTRUCTION TO VISIBILITY.

MIZ047>049-052>055-059>063-066>070-074>076-081>083-251600-
SOUTHEAST LOWER MICHIGAN

CITY           SKY/WX    TMP DP  RH WIND       PRES   REMARKS
ADRIAN         CLOUDY    33  26  75 W20G25    29.62R WCI  21
ALMA           CLOUDY    30  22  71 W21G28    29.57R WCI  17
ANN ARBOR      CLOUDY    33  26  75 W17G30    29.58R WCI  22
BAD AXE        PTSUNNY   34  25  68 W28G39    29.47R WCI  21
CARO           MOSUNNY   34  26  71 W22G31    29.50S WCI  22
DETROIT CITY   CLOUDY    38  29  70 W22G29    29.55R WCI  27
DETROIT        FLURRIES  37  31  78 W18       29.58R WCI  27
FLINT          CLOUDY    32  23  69 W23G32    29.56R WCI  19
GROSSE ILE     CLOUDY    37  32  83 W16G25    29.57R WCI  27
HILLSDALE      LGT SNOW  30  27  86 W16       29.60R WCI  19
HOWELL         CLOUDY    31  25  77 W15G26    29.57R WCI  20

CITY           SKY/WX    TMP DP  RH WIND       PRES   REMARKS
JACKSON        CLOUDY    31  23  72 W17G25    29.60R WCI  19
LAMBERTVILLE   FLURRIES  37  30  76 W14G23    29.62R WCI  28
LANSING        PTSUNNY   30  20  66 W23G32    29.60R WCI  17
LAPEER         CLOUDY    34  27  74 W14G25    29.53R WCI  25
MASON          CLOUDY    31  24  74 W16G23    29.59R WCI  20
MONROE         CLOUDY    37  32  82 W18G25    29.59R WCI  27
MT. CLEMENS    PTSUNNY   39  33  78 W17G29    29.51R WCI  30
PONTIAC        CLOUDY    33  27  78 W17G28    29.53R WCI  22
PORT HOPE        N/A     36  26  67 W21G36    29.41S WCI  25
PORT HURON     CLOUDY    39  32  75 W7        29.51R WCI  34
TRI CITIES     PTSUNNY   32  24  72 W29G36    29.53R WCI  18
MIDLAND        CLOUDY    33  24  68 SW18G28   29.51S WCI  22
TROY           CLOUDY    37  27  68 W17G30    29.57R WCI  27
SAGINAW HB     MOSUNNY   34  23  64 W25G36    29.53R WCI  21
$$
MIZ043>046-050>051-056>058-064>065-071>073-077>080-251600-
SOUTHWEST LOWER MICHIGAN

CITY           SKY/WX    TMP DP  RH WIND       PRES   REMARKS
BATTLE CREEK   FLURRIES  28  22  78 W16G29    29.64R WCI  16
BENTON HARBOR  FLURRIES  26  18  71 W20G31    29.72R WCI  12
BIG RAPIDS     LGT SNOW  26  22  84 W10G20    29.56R WCI  16
COLDWATER      LGT SNOW  30  26  85 W14G26    29.64R WCI  19
FREMONT        LGT SNOW  25  23  90 W13G21    29.61R WCI  14
HOLLAND        LGT SNOW  27  20  75 W16G24    29.67R WCI  15
GRAND RAPIDS   LGT SNOW  27  21  78 W20       29.62R VSB 1   WCI  13
IONIA          FLURRIES  29  20  69 W18G31    29.59R WCI  17
KALAMAZOO      CLOUDY    27  18  69 W18G29    29.66R WCI  14
LUDINGTON      SNOW      24  21  90 NW16G24   29.62R VSB 1/2 WCI  10
MARSHALL       LGT SNOW  29  26  85 W20       29.62R WCI  17
MOUNT PLEASANT LGT SNOW  30  25  83 W18G26    29.53R WCI  18
MUSKEGON       SNOW      26  22  84 W13G26    29.66R VSB 1/2 WCI  15
SOUTH HAVEN    LGT SNOW  26  21  79 W15G21    29.70R WCI  14
$$
MIZ016>042-251600-
NORTHERN LOWER MICHIGAN

CITY           SKY/WX    TMP DP  RH WIND       PRES   REMARKS
ALPENA         PTSUNNY   30  25  81 W16G24    29.42R WCI  19
BEAVER ISLAND  LGT SNOW  23  20  88 W14G22    29.48R WCI  11
BELLAIRE       LGT SNOW  27  24  88 NW9G22    29.51R WCI  17
CADILLAC       LGT SNOW  25  19  79 W17G26    29.50R WCI  12
CHARLEVOIX     LGT SNOW  25  24  93 W22G28    29.51R VSB 3/4 WCI  11
FRANKFORT      LGT SNOW  24  21  88 NW14G28   29.58R WCI  11
GAYLORD        LGT SNOW  25  18  74 NW9G24    29.43R WCI  15
GRAYLING       PTSUNNY   28  22  81 W14G22    29.46R HAZE    WCI  17
HARBOR SPRINGS LGT SNOW  25  21  84 W6        29.46R WCI  18
HOUGHTON LAKE  FLURRIES  27  22  81 W18G24    29.47R WCI  14
MANISTEE       LGT SNOW  24  21  88 NW18      29.59R FOG     WCI  10
OSCODA         CLOUDY    34  29  83 W16G32    29.42R WCI  23
PELLSTON       LGT SNOW  24  18  77 NW15      29.45R WCI  11
ROGERS CITY    CLOUDY    27  24  87 W6        29.42R FOG     WCI  21
TRAVERSE CITY  LGT SNOW  25  21  85 W15       29.53R VSB 1   WCI  13
$$
MIZ007>008-015-251600-
EASTERN UPPER MICHIGAN

CITY           SKY/WX    TMP DP  RH WIND       PRES   REMARKS
KINROSS        LGT SNOW  22  19  89 W13       29.38S FOG     WCI  10
MACKINAC ISLAN LGT SNOW  22  22 100 W17G24    29.41R WCI   8
NEWBERRY       SNOW      20  18  93 NW10      29.42R VSB 1/4 WCI   9
S. S. MARIE    LGT SNOW  22  18  85 NW6       29.37R FOG     WCI  14
MUNISING         N/A     22  16  78 N21G36    29.51R WCI   6
$$
MIZ004>006-011>014-085-251600-
CENTRAL UPPER MICHIGAN

CITY           SKY/WX    TMP DP  RH WIND       PRES   REMARKS
MANISTIQUE     LGT SNOW  21  20  96 NW10G16   29.49R VSB 3/4 WCI  10
ESCANABA       LGT SNOW  19  15  84 NW17      29.58R FOG     WCI   4
MENOMINEE      LGT SNOW  20  16  84 NW7G16    29.65R VSB 1   WCI  11
SAWYER-GWINN   LGT SNOW  16  12  86 NW17G26   29.53R WCI   0
$$
MIZ001>003-009>011-084-251600-
WESTERN UPPER MICHIGAN

CITY           SKY/WX    TMP DP  RH WIND       PRES   REMARKS
IRON MOUNTAIN  LGT SNOW  18  10  71 NW23G30   29.58S WCI   0
HOUGHTON       HAZE      18  12  77 NW20G29   29.60R VSB 3/4 WCI   2
COPPER HARBOR    N/A     20  16  84 N29G39    29.59R WCI   1
IRONWOOD       LGT SNOW  16  12  84 NW15G21   29.72R FOG     WCI   1
$$

ABBREVIATIONS USED IN REMARKS
   TC - TEMPERATURE IN CELSIUS
  WCI - WIND CHILL INDEX
   HX - HEAT INDEX
  VSB - VISIBILITY




USA.gov is the U.S. government's official web portal to all federal, state and local government web resources and services.